Regional Weather Roundup
Issued by NWS

Home | Current Version | Previous Version | Graphics & Text | Print | Product List | Glossary On
Versions: 1 2 3 4 5 6 7 8 9 10 11 12 13 14 15 16 17 18 19 20 21 22 23 24 25 26 27 28 29 30 31 32 33 34 35 36 37 38 39 40 41 42 43 44 45 46 47 48 49 50
000
ASUS45 KBOU 230907
RWRCO

WEATHER ROUNDUP FOR COLORADO
NATIONAL WEATHER SERVICE DENVER/BOULDER CO
300 AM MDT THU MAR 23 2017

NOTE: "FAIR" INDICATES FEW OR NO CLOUDS BELOW 12000 FEET WITH NO
SIGNIFICANT WEATHER AND/OR OBSTRUCTIONS TO VISIBILITY.

COZ001>005-013-030-031-231000-
...NORTHWEST COLORADO...

CITY           SKY/WX    TMP DP  RH WIND       PRES   REMARKS
CRAIG          MOCLDY    39  31  72 VRB5      29.80F
HAYDEN         FAIR      45  28  53 SW9       29.82F
MEEKER         MOCLDY    42  33  70 NE5       29.76F
MOUNT WERNER   NOT AVBL
STEAMBOAT SPGS MOCLDY    40  29  65 E7        29.84F
WALDEN         NOT AVBL
$$

COZ006>008-011-231000-
...WEST CENTRAL VALLEYS...

CITY           SKY/WX    TMP DP  RH WIND       PRES   REMARKS
GRAND JUNCTION FAIR      50  35  56 VRB5      29.72R
MONTROSE       FAIR      56  20  24 SW9       29.81R
EAGLE          CLOUDY    48  33  56 SW22G29   29.89R
RIFLE          FAIR      52  31  44 SE10      29.76F
DELTA          FAIR      60  20  21 SW10      29.77S
NUCLA          FAIR      54  21  28 S16       29.86R
$$

COZ017>023-064>068-231000-
...SOUTHWEST COLORADO...

CITY           SKY/WX    TMP DP  RH WIND       PRES   REMARKS
DURANGO        FAIR      40  24  53 CALM      29.90S
CORTEZ         FAIR      49  25  39 SW14      29.87R
PAGOSA SPRINGS CLOUDY    42  29  59 CALM      29.93F
TELLURIDE      MOCLDY    46  17  30 S25G38    29.93F
WOLF CREEK PAS CLOUDY    30  18  59 SW23G35   30.07F WCI  17
$$

COZ009-010-012-014-032>034-037-058>063-231000-
...CENTRAL COLORADO...

CITY           SKY/WX    TMP DP  RH WIND       PRES   REMARKS
ASPEN          CLOUDY    43  32  65 W15       29.90S
BUENA VISTA    FAIR      43  21  42 S6        29.89F
COPPER MTN     FAIR      36  19  51 MISG      30.05R
BERTHOUD PASS  FAIR      30  19  64 S18G33    30.05F WCI  18
COTTONWOOD PAS MOCLDY    45  16  31 SW7G22    29.97F
GUNNISON       FAIR      44  28  53 NE7       29.89F
KREMMLING      FAIR      37  30  75 N5        29.88R
LEADVILLE      MOCLDY    39  19  44 S24G31    29.96S
MONARCH PASS   MOCLDY    32  19  59 SW55G69   30.11F WCI  14
SALIDA         FAIR      46  22  39 SW3       29.96F
SUNLIGHT       CLOUDY    30  27  86 SE3G16    29.99F
WILKERSON PASS CLOUDY    36  18  48 SW13G21   30.05F
$$

COZ069>075-231000-
...SAN LUIS VALLEY/SANGRE DE CRISTO MOUNTAINS...

CITY           SKY/WX    TMP DP  RH WIND       PRES   REMARKS
ALAMOSA        FAIR      38  23  55 S8        29.91F
LA VETA PASS   NOT AVBL
SAGUACHE       FAIR      43  21  42 NW8       29.92F
$$

COZ035-036-038>040-231000-
...NORTHERN COLORADO FRONT RANGE...

CITY           SKY/WX    TMP DP  RH WIND       PRES   REMARKS
DENVER INTL AP FAIR      47  34  60 S14       29.72F
DMNS CITY PARK   N/A     51  34  53 E10       29.72F
AURORA         PTCLDY    48  35  61 S14       29.74F
FRONT RANGE AP FAIR      50  37  62 S10       29.74F
ERIE MUNI ARPT FAIR      43  28  56 CALM      29.72R
BOULDER MUN AP FAIR      48  30  49 CALM      29.73R
CENTENNIAL     FAIR      49  35  58 SE8       29.76F
BROOMFIELD     FAIR      50  25  37 W8        29.74S
FORT COLLINS   FAIR      43  35  73 N6        29.73S
LONGMONT       FAIR      42  31  64 NW6       29.74S
$$

COZ041-046-047-076>085-087-088-231000-
...PIKES PEAK/PALMER DIVIDE AND SOUTHERN FOOTHILLS...

CITY           SKY/WX    TMP DP  RH WIND       PRES   REMARKS
COLO. SPRINGS  FAIR      43  34  70 N3        29.82F
A. F. ACADEMY  FAIR      34  29  82 N6        29.82F WCI  29
SCHRIEVER AFB  FAIR      44  36  74 NE9       29.81F
ELLICOTT         N/A    N/A N/A N/A SE10      29.79F
FALCON         FAIR      39  33  81 CALM      29.85F
FORT CARSON    CLEAR     41  31  68 NW8       29.79F
LIMON          FAIR      35  35 100 SE3       29.80F FOG
MONUMENT HILL  FAIR      41  34  75 S12       29.83F
TRINIDAD       FAIR      60  43  53 S23       29.82F
$$

COZ042>045-048>051-090-091-231000-
...NORTHEAST COLORADO...

CITY           SKY/WX    TMP DP  RH WIND       PRES   REMARKS
GREELEY ARPT   NOT AVBL
AKRON          FAIR      51  42  71 S13       29.72F
BURLINGTON     FAIR      49  45  86 S25       29.78F
WRAY           NOT AVBL
STERLING       FAIR      41  36  81 E7        29.73F
HOLYOKE        FAIR      37  34  87 SE6       29.77F
FORT MORGAN    FAIR      41  36  81 NE5       29.72F
$$

COZ086-089-092>099-231000-
...SOUTHEAST COLORADO...

CITY           SKY/WX    TMP DP  RH WIND       PRES   REMARKS
PUEBLO         FAIR      39  30  70 SE3       29.74F
LA JUNTA       FAIR      62  47  57 S12       29.74F
LAMAR          FAIR      59  47  64 S18G31    29.76F
SPRINGFIELD      N/A     54  48  80 S22G30    29.84F
$$



USA.gov is the U.S. government's official web portal to all federal, state and local government web resources and services.